Weather History for Rome, GA

Change the Weather History Date:

Sunday, June 23, 2013

  Actual Average Record
Temperature  
Mean Temperature 76 °F 78 °F  
Max Temperature 85 °F 89 °F 99 °F (2006)
Min Temperature 66 °F 66 °F 59 °F (2001)
Cooling Degree Days 11 12  
Month to date cooling degree days 269 237  
Year to date cooling degree days 412 405  
Since 1 June cooling degree days 269 237  
Growing Degree Days 25 (Base 50)    
Moisture  
Dew Point 68 °F    
Average Humidity 78    
Maximum Humidity 100    
Minimum Humidity 55    
Precipitation  
Precipitation 0.00 in 0.15 in 1.05 in (2011)
Month to date precipitation 5.42 3.06  
Year to date precipitation 20.22 25.93  
Sea Level Pressure  
Sea Level Pressure 30.12 in    
Wind  
Wind Speed 3 mph (SE)    
Max Wind Speed 12 mph    
Max Gust Speed 16 mph    
Visibility 10 miles    
Events      
T = Trace of Precipitation, MM = Missing Value Source: NWS Daily Summary

Daily Weather History Graph

Daily Weather History Graph

Search for Another Location

Airport:

Trip Planner

Search our weather history database for the weather conditions in past years. The results will help you decide how hot, cold, wet, or windy it might be!

Date:

Astronomy

Jun. 23, 2013 Rise Set
Actual Time 6:29 AM EDT 8:56 PM EDT
Civil Twilight 6:00 AM EDT 9:25 PM EDT
Nautical Twilight 5:23 AM EDT 10:02 PM EDT
Astronomical Twilight 4:43 AM EDT 10:41 PM EDT
Moon 9:11 PM EDT (6/23) 6:43 AM EDT (6/23)
Length of Visible Light 15h 25m
Length of Day
14h 27m
Full, 100% of the Moon is Illuminated
Jun 23
Full
Jun 30
Last Quarter
Jul 8
New
Jul 15
First Quarter
Jul 22
Full

Hourly Weather History & Observations

Time (EDT) Temp. Heat Index Dew Point Humidity Pressure Visibility Wind Dir Wind Speed Gust Speed Precip Events Conditions
12:53 AM 70.0 °F - 66.9 °F 90% 30.14 in 10.0 mi NNE 3.5 mph - N/A   Overcast
1:53 AM 69.1 °F - 66.9 °F 93% 30.11 in 10.0 mi Calm Calm - N/A   Partly Cloudy
2:53 AM 68.0 °F - 66.0 °F 93% 30.09 in 10.0 mi Calm Calm - N/A   Clear
3:53 AM 66.9 °F - 66.0 °F 97% 30.09 in 10.0 mi Calm Calm - N/A   Clear
4:53 AM 66.0 °F - 64.9 °F 96% 30.09 in 10.0 mi Calm Calm - N/A   Clear
5:53 AM 66.9 °F - 66.0 °F 97% 30.11 in 10.0 mi Calm Calm - N/A   Overcast
6:53 AM 66.9 °F - 66.0 °F 97% 30.13 in 8.0 mi Calm Calm - N/A   Mostly Cloudy
7:53 AM 68.0 °F - 66.0 °F 93% 30.15 in 10.0 mi North 3.5 mph - N/A   Mostly Cloudy
8:53 AM 72.0 °F - 68.0 °F 87% 30.17 in 10.0 mi NE 5.8 mph - N/A   Overcast
9:53 AM 73.9 °F - 69.1 °F 85% 30.18 in 10.0 mi East 4.6 mph - N/A   Scattered Clouds
10:53 AM 77.0 °F - 69.1 °F 76% 30.18 in 10.0 mi Variable 3.5 mph - N/A   Partly Cloudy
11:24 AM 78.8 °F - 69.8 °F 74% 30.21 in 10.0 mi Variable 4.6 mph - N/A   Mostly Cloudy
11:40 AM 78.8 °F - 69.8 °F 74% 30.21 in 10.0 mi Calm Calm - N/A   Overcast
11:53 AM 79.0 °F - 69.1 °F 72% 30.18 in 10.0 mi Variable 3.5 mph - N/A   Mostly Cloudy
12:53 PM 81.0 °F 84.4 °F 70.0 °F 69% 30.16 in 10.0 mi SSE 10.4 mph - N/A   Scattered Clouds
1:53 PM 82.0 °F 85.5 °F 69.1 °F 65% 30.13 in 10.0 mi Variable 3.5 mph - N/A   Partly Cloudy
2:53 PM 82.9 °F 87.0 °F 70.0 °F 65% 30.11 in 10.0 mi South 5.8 mph - N/A   Mostly Cloudy
3:53 PM 84.0 °F 87.8 °F 69.1 °F 61% 30.09 in 10.0 mi Variable 5.8 mph - N/A   Partly Cloudy
4:53 PM 82.9 °F 85.8 °F 68.0 °F 60% 30.09 in 10.0 mi Calm Calm - N/A   Clear
5:53 PM 84.0 °F 87.8 °F 69.1 °F 61% 30.08 in 10.0 mi SSW 4.6 mph - N/A   Clear
6:53 PM 84.0 °F 86.5 °F 66.9 °F 56% 30.06 in 10.0 mi South 5.8 mph - N/A   Clear
7:53 PM 82.9 °F 86.5 °F 69.1 °F 63% 30.07 in 10.0 mi South 4.6 mph - N/A   Clear
8:53 PM 77.0 °F - 71.1 °F 82% 30.08 in 10.0 mi Calm Calm - N/A   Clear
9:53 PM 73.9 °F - 71.1 °F 91% 30.09 in 10.0 mi Calm Calm - N/A   Clear
10:53 PM 73.9 °F - 71.1 °F 91% 30.12 in 10.0 mi Calm Calm - N/A   Clear
11:53 PM 73.0 °F - 71.1 °F 93% 30.13 in 10.0 mi Calm Calm - N/A   Scattered Clouds